Location: Aula-Vintri
(58.3875°N, 22.4322°E)
Time: 23:54:31
(UTC+00:00)

STARLINK-67 - Pass Details

Date: 13 October 2019
Orbit: 301 x 331 km, 53.0° (Epoch: 12 November)

Event Time Altitude Azimuth Distance (km) Brightness Sun altitude
Rises 16:41:11 0° 262° (W) 2,014 8.6 -9.9°
Reaches altitude 10° 16:43:21 10° 245° (WSW) 1,193 6.5 -10.2°
Maximum altitude 16:45:29 22° 191° (SSW) 750 4.4 -10.5°
Enters shadow 16:47:30 11° 139° (SE) 1,160 4.9 -10.7°
